Weather History for Pensacola NAS, FL

Change the Weather History Date:

Monday, November 5, 2012

  Actual Average Record
Temperature  
Mean Temperature 60 °F -  
Max Temperature 70 °F 72 °F 84 °F (2002)
Min Temperature 50 °F 53 °F 41 °F (1999)
Degree Days  
Heating Degree Days 5    
Growing Degree Days 10 (Base 50)    
Moisture  
Dew Point 49 °F    
Average Humidity 64    
Maximum Humidity 96    
Minimum Humidity 33    
Precipitation  
Precipitation 0.00 in - - ()
Sea Level Pressure  
Sea Level Pressure 30.00 in    
Wind  
Wind Speed 4 mph (ESE)    
Max Wind Speed 13 mph    
Max Gust Speed -    
Visibility 10 miles    
Events Rain    
Averages and records for this station are not official NWS values.
T = Trace of Precipitation, MM = Missing Value Source: NWS Daily Summary

Daily Weather History Graph

Daily Weather History Graph

Search for Another Location

Airport:

Trip Planner

Search our weather history database for the weather conditions in past years. The results will help you decide how hot, cold, wet, or windy it might be!

Date:

Astronomy

Nov. 05, 2012 Rise Set
Actual Time 6:07 AM CST 4:58 PM CST
Civil Twilight 5:42 AM CST 5:23 PM CST
Nautical Twilight 5:13 AM CST 5:51 PM CST
Astronomical Twilight 4:45 AM CST 6:20 PM CST
Moon 10:34 PM CST (11/5) 11:25 AM CST (11/5)
Length of Visible Light 11h 41m
Length of Day
10h 51m
Waning Gibbous, 62% of the Moon is Illuminated
Nov 5
Waning Gibbous
Nov 6
Last Quarter
Nov 13
New
Nov 20
First Quarter
Nov 28
Full

Hourly Weather History & Observations

Time (CST) Temp. Dew Point Humidity Pressure Visibility Wind Dir Wind Speed Gust Speed Precip Events Conditions
12:56 AM 57.9 °F 55.9 °F 93% 30.06 in 10.0 mi Calm Calm - N/A   Clear
1:56 AM 55.9 °F 54.0 °F 93% 30.05 in 10.0 mi North 3.5 mph - N/A   Clear
2:56 AM 55.0 °F 52.0 °F 89% 30.05 in 10.0 mi North 4.6 mph - N/A   Clear
3:56 AM 54.0 °F 51.1 °F 90% 30.06 in 10.0 mi Calm Calm - N/A   Clear
4:56 AM 53.1 °F 50.0 °F 89% 30.06 in 10.0 mi North 4.6 mph - N/A   Clear
5:56 AM 50.0 °F 48.9 °F 96% 30.07 in 10.0 mi Calm Calm - N/A   Clear
6:56 AM 53.1 °F 51.1 °F 93% 30.08 in 10.0 mi Calm Calm - N/A   Partly Cloudy
7:56 AM 59.0 °F 50.0 °F 72% 30.08 in 10.0 mi ENE 8.1 mph - N/A   Mostly Cloudy
8:56 AM 62.1 °F 48.0 °F 60% 30.08 in 10.0 mi ENE 6.9 mph - N/A   Partly Cloudy
9:56 AM 66.9 °F 46.0 °F 47% 30.08 in 10.0 mi East 4.6 mph - N/A   Scattered Clouds
10:56 AM 68.0 °F 41.0 °F 37% 30.05 in 10.0 mi East 8.1 mph - N/A   Clear
11:56 AM 69.1 °F 44.1 °F 40% 30.02 in 10.0 mi SSE 8.1 mph - N/A   Partly Cloudy
12:56 PM 70.0 °F 39.9 °F 33% 30.00 in 10.0 mi ESE 8.1 mph - N/A   Scattered Clouds
1:56 PM 68.0 °F 41.0 °F 37% 29.98 in 10.0 mi ESE 5.8 mph - N/A   Mostly Cloudy
2:56 PM 69.1 °F 46.0 °F 44% 29.98 in 10.0 mi South 5.8 mph - N/A   Mostly Cloudy
3:56 PM 66.9 °F 45.0 °F 45% 29.98 in 10.0 mi Calm Calm - N/A   Overcast
4:56 PM 64.9 °F 46.0 °F 50% 29.99 in 10.0 mi SSE 3.5 mph - N/A   Overcast
5:43 PM 62.6 °F 48.2 °F 59% 29.97 in 10.0 mi SE 6.9 mph - 0.00 in Rain Light Rain
5:56 PM 64.0 °F 46.0 °F 52% 29.96 in 10.0 mi SE 8.1 mph - 0.00 in   Overcast
6:56 PM 66.0 °F 45.0 °F 47% 29.95 in 10.0 mi South 11.5 mph - N/A   Overcast
7:56 PM 61.0 °F 53.1 °F 75% 29.96 in 10.0 mi Calm Calm - N/A   Overcast
8:56 PM 64.9 °F 51.1 °F 61% 29.94 in 10.0 mi South 8.1 mph - N/A   Overcast
9:56 PM 64.9 °F 53.1 °F 65% 29.90 in 10.0 mi SSE 9.2 mph - N/A   Overcast
10:56 PM 66.9 °F 57.9 °F 73% 29.88 in 10.0 mi South 11.5 mph - N/A   Overcast
11:56 PM 61.0 °F 51.1 °F 70% 29.88 in 10.0 mi NE 12.7 mph - N/A   Overcast